Simultaneous Nadir Overpasses (SNOs) Predictions

Prediction of SNOs between GOES-16 and LANDSAT-8 Satellite Orbit:

Table of predicted SNOs for the next 14.0 days since TLE Epoch: 5/30/2020
Index Date Time (GOES-16) GOES-16 Lat,Lon LANDSAT-8 Lat,Lon Distance(km) Time Diff (sec)
1 05/30/2020 03:10:24 -0.02, -75.19 0.12, -74.66 59.87 1
2 06/01/2020 02:56:54 -0.02, -75.19 0.74, -71.70 396.43 80
3 06/01/2020 15:18:10 0.01, -75.21 0.34, -76.86 187.91 80
4 06/03/2020 15:08:39 0.01, -75.21 -0.29, -73.90 149.37 80
5 06/04/2020 03:30:03 -0.01, -75.20 -0.83, -79.09 442.34 80
6 06/05/2020 14:56:28 0.01, -75.22 -0.91, -70.95 486.79 80
7 06/06/2020 03:17:52 -0.01, -75.21 -0.21, -76.13 104.82 80
8 06/08/2020 03:03:01 -0.00, -75.23 0.42, -73.17 233.16 80
9 06/08/2020 15:24:16 0.00, -75.25 0.67, -78.33 350.99 80
10 06/10/2020 15:12:06 -0.00, -75.27 0.04, -75.37 12.23 80
11 06/12/2020 15:02:36 -0.00, -75.30 -0.64, -72.43 327.96 80




NCC Satellite Simultaneous Nadir Overpasses (SNOs) Prediction Service
